COSMOS 1275 DEB, 42119

Orbit data source: Space-Track

COSMOS 1275 DEB, 42119 is space debris in LEO originally from a launch on Thu, 04 Jun 1981 UTC launched from the Plesetsk Missile And Space Complex (PKMTR). Debris objects in space refer to the collection of defunct objects orbiting the Earth. Examples of debris include non-operational satellites, rocket bodies, and fragments generated from explosions, collisions, or faulty payload assembly.

Loading next visibility...
Identifier
42119, 1981-053QF
Orbit
LEO
Country
Flag of CISCIS
Related business
Manufacturer
Unknown
Mission
Spacecraft
Bus & Motor
Unknown
Mass
Unknown
Launch date (UTC)
1981-06-04 (45 years ago)
Launch vehicle
Unknown
Launch site
Plesetsk Missile And Space Complex (PKMTR)
Object type
Payload
Rocket body
Debris
Shape & HBR
Unknown shape, 0.1 m
Radar Cross Section
Small (<0.1 m²)

Expand to show TLE details & history
Last TLE update: 4 days ago

TLE from 4 days ago
0 COSMOS 1275 DEB
1 42119U 81053QF  25349.79403762  .00000767  00000-0  62842-3 0  9990
2 42119  83.1745  15.6939 0043822 278.8847  80.7357 13.87850643 81816
Epoch: 2025-12-15T19:03Z
TLE epoch observation values (Epoch: 2025-12-15T19:03:24.850Z)
Latitude
Longitude
5.15286°
Altitude
934.072 km
Speed
7.387 km/s
True Right ascension
01h 02m 46s
True Declination
0° 00' 00"
Sunlit
Object was in daylight at epoch
Visualization orbit readout
Latitude
Unknown
Longitude
Unknown
Altitude
Unknown
Speed
Unknown
Apparent Right ascension
Unknown
Apparent Declination
Unknown
Sunlit
N/A
Visualization observer readout
Local Sidereal Time
09:00:35
Azimuth
Unknown
Elevation
Unknown
Doppler factor
Unknown
Orbital elements
Apogee altitude
965.335 km
Perigee altitude
901.255 km
Semi-major axis
7,311.432 km
Eccentricity
0.00438
Inclination
83.1745°
RAAN
15.6939°
Arg. of periapsis
278.8847°
True anomaly
81.23174°
Mean anomaly
80.7357°
Eccentric anomaly
80.98368°
Mean motion
3.47168 °/min
Orbital period
103.7 mins
BSTAR
0.00062842
Loading maneuver chart data...
Computing Atmospheric mass density...

Documentation

Showing up to 5 results
|